This is the latest recevied weather packets stored in our database for station/object DL9CN-10. If no packets are shown the sender has not sent any weather packets the latest 10 day(s).
| Time | Temp. | Humidity | Pressure | Rain* | Wind** | Luminosity | Snow |
|---|---|---|---|---|---|---|---|
| 1777623766 | 15° C | 35% | 1026.8 hPa | - | - | - | - |
| 1777622866 | 15° C | 35% | 1026.9 hPa | - | - | - | - |
| 1777621966 | 14.44° C | 34% | 1026.9 hPa | - | - | - | - |
| 1777621065 | 14.44° C | 34% | 1026.9 hPa | - | - | - | - |
| 1777620165 | 13.89° C | 34% | 1026.9 hPa | - | - | - | - |
| 1777619265 | 13.33° C | 34% | 1026.8 hPa | - | - | - | - |
| 1777618365 | 13.33° C | 33% | 1026.7 hPa | - | - | - | - |
| 1777617464 | 12.78° C | 33% | 1026.7 hPa | - | - | - | - |
| 1777616564 | 12.78° C | 33% | 1026.7 hPa | - | - | - | - |
| 1777615664 | 12.22° C | 32% | 1026.6 hPa | - | - | - | - |
| 1777614764 | 12.22° C | 32% | 1026.5 hPa | - | - | - | - |
| 1777613864 | 12.22° C | 32% | 1026.4 hPa | - | - | - | - |
| 1777612964 | 11.67° C | 31% | 1026.3 hPa | - | - | - | - |
| 1777612063 | 11.67° C | 31% | 1026.4 hPa | - | - | - | - |
| 1777611163 | 11.67° C | 31% | 1026.3 hPa | - | - | - | - |
| 1777610263 | 11.67° C | 31% | 1026.2 hPa | - | - | - | - |
| 1777609367 | 12.22° C | 30% | 1026.5 hPa | - | - | - | - |
| 1777608467 | 12.22° C | 30% | 1026.4 hPa | - | - | - | - |
| 1777607566 | 12.22° C | 30% | 1026.3 hPa | - | - | - | - |
| 1777606666 | 12.22° C | 30% | 1026.3 hPa | - | - | - | - |
| 1777605766 | 12.78° C | 30% | 1026.4 hPa | - | - | - | - |
| 1777604866 | 12.78° C | 29% | 1026.5 hPa | - | - | - | - |
| 1777603966 | 12.78° C | 29% | 1026.6 hPa | - | - | - | - |
| 1777603066 | 13.33° C | 29% | 1026.6 hPa | - | - | - | - |
| 1777602165 | 13.33° C | 29% | 1026.8 hPa | - | - | - | - |
* Rain since midnight (hover to see other rain measurements)
** Current wind speed in m/s (hover to see current wind gust speed)